Regional Weather Roundup
Issued by NWS Upton, NY

Current Version | Previous Version | Graphics & Text | Print | Product List | Glossary Off
Versions: 1 2 3 4 5 6 7 8 9 10 11 12 13 14 15 16 17 18 19 20 21 22 23 24 25 26 27

000
ASUS41 KOKX 281504
RWROKX

REGIONAL WEATHER ROUNDUP
NATIONAL WEATHER SERVICE NEW YORK NY
1100 AM EDT THU APR 28 2016

NOTE: "FAIR" INDICATES FEW OR NO CLOUDS BELOW 12,000 FEET WITH NO
SIGNIFICANT WEATHER AND/OR OBSTRUCTIONS TO VISIBILITY.

NYZ071-072-176-178-NJZ106-104-281600-
NEW YORK CITY METRO AREA


CITY           SKY/WX    TMP DP  RH WIND       PRES   REMARKS
CENTRAL PARK   CLOUDY    54  25  32 VRB7      30.07F
LAGUARDIA APRT CLOUDY    55  24  30 E10       30.06S
KENNEDY INTL   CLOUDY    57  19  22 NE8       30.06F
NEWARK/LIBERTY CLOUDY    54  23  30 NE8       30.06S
BRNX BOT. GARD   N/A     54  27  35 E14       30.07R
TETERBORO      CLOUDY    56  23  27 NE7       30.04F
$$

NYZ177-179-078>081-281600-
LONG ISLAND NEW YORK

CITY           SKY/WX    TMP DP  RH WIND       PRES   REMARKS
FARMINGDALE    CLOUDY    54  24  31 NE9       30.05F
ISLIP          CLOUDY    55  23  28 N10       30.05S
SHIRLEY        CLOUDY    56  28  34 VRB6      30.06F
RIVERHEAD        N/A     52  34  50 NE7       30.06F
WESTHAMPTON    MOSUNNY   50  30  46 SE10      30.08S
EAST HAMPTON   FAIR      51  32  47 E8        30.07S
MONTAUK POINT    N/A     51  26  37 E7        30.09R
$$

NYZ052-065-067-281600-
HUDSON VALLEY

CITY           SKY/WX    TMP DP  RH WIND       PRES   REMARKS
WHITE PLAINS   CLOUDY    55  22  27 N5        30.04F
NEWBURGH       SUNNY     50  25  37 E14       30.06
MONTGOMERY       N/A     54  24  31 VRB5      30.05S
POUGHKEEPSIE   MOSUNNY   55  23  28 MISG      30.07S
ALBANY         MOSUNNY   50  20  30 NW7       30.09F
$$

NJZ001-105-106-008-010-013-015-019>022-104-281600-
NEW JERSEY

CITY           SKY/WX    TMP DP  RH WIND       PRES   REMARKS
NEWARK/LIBERTY CLOUDY    54  23  30 NE8       30.06S
TETERBORO      CLOUDY    56  23  27 NE7       30.04F
CALDWELL       MOSUNNY   55  25  31 E5G18     30.06S
MORRISTOWN     PTSUNNY   55  23  28 NE5       30.05F
SOMERVILLE     CLOUDY    55  23  28 VRB3      30.04S
SUSSEX         CLOUDY    54  25  32 VRB6      30.05F
ANDOVER          N/A     55  24  30 N5        30.05S
TRENTON        CLOUDY    54  29  38 E9        30.05R
MILLVILLE      CLOUDY    54  33  45 E13       30.03S
ATLANTIC CITY  CLOUDY    53  32  44 E16G23    30.05R
WRIGHTSTOWN    CLOUDY    54  26  34 NE13      30.03S
TOMS RIVER     CLOUDY    52  25  35 E9        30.07S
BELMAR         CLOUDY    52  27  38 E12G20    30.08R
$$

PAZ047>061-062-071-281600-
EASTERN PENNSYLVANIA

CITY           SKY/WX    TMP DP  RH WIND       PRES   REMARKS
PHILADELPHIA   CLOUDY    55  31  39 NE9       30.05R
ALLENTOWN      CLOUDY    55  26  32 E8        30.04F
SCRANTON       MOSUNNY   53  18  25 N12       30.03F
$$

CTZ002-004>006-009-010-012-RIZ004-006-007-MAZ004-011-015-281600-
SOUTHERN NEW ENGLAND
 IN CT

CITY           SKY/WX    TMP DP  RH WIND       PRES   REMARKS
BRADLEY INTL   PTSUNNY   54  17  23 N7        30.04F
HARTFORD       MOSUNNY   56  23  27 NE7       30.06F
DANBURY        MOSUNNY   53  23  31 VRB7      30.07S
WTRBRY/OXFORD  PTSUNNY   50  19  29 NE5       30.06F
BRIDGEPORT     PTSUNNY   53  22  29 SE10      30.06F
MERIDEN        MOSUNNY   55  15  20 VRB6      30.06F
NEW HAVEN      PTSUNNY   53  25  33 S10       30.06S
CHESTER        FAIR      54  14  20 CALM      30.05S
GROTON         SUNNY     51  39  63 S14       30.06S
WILLIMANTIC    MOSUNNY   55  18  23 CALM      30.05F

 IN RI

CITY           SKY/WX    TMP DP  RH WIND       PRES   REMARKS
PROVIDENCE     PTSUNNY   54  17  23 N12       30.06F
BLOCK ISLAND   CLOUDY    48  26  42 E8        30.08R
WESTERLY       SUNNY     51  26  37 SE10      30.07S

 IN MA

CITY           SKY/WX    TMP DP  RH WIND       PRES   REMARKS
BOSTON         MOSUNNY   51  14  22 NW9G16    30.07S
WORCESTER      SUNNY     48  15  26 VRB5      30.03F
WESTFIELD      SUNNY     51  15  23 VRB5      30.04F
PROVINCETOWN   SUNNY     47  26  44 N9        30.08S
NANTUCKET      SUNNY     53  28  38 N12       30.07R
$$

ANZ330-335-338-340-345-350-353-355-281600-
COASTAL MARINE OBSERVATIONS


STATION/POSITION TIME  SKY/WX   TEMP    WIND        PRES    VSBY  WAVE
                                AIR SEA DIR/SP/G                  HT/PER
                 (UTC)          (F)     (DEG/KT/KT) (MB)    (MI)  (FT/S)
NY HARB ENTRANCE 1350            50 51   50/ 16/ 17 1017.3          3/ 6
20S FIRE ISLAND  1350            48 49   70/ 17/ 19 1017.1          3/ 4
GREAT SOUTH BAY  1415            50 58  120/ 12/ 14   N/A
23 SSW MONTAUK P 1450            47 47   90/ 12/ 16 1017.5          3/ 7
15 E BARNEGAT LI 1422               51                N/A           4/ 4
HUDSON CANYON    1350            49 49              1016.3          3/ 6
KINGS POINT      1400            50 53              1017.8
EXECUTION ROCKS  NOT AVBL
CENTRAL LI SOUND 1400            48      70/  4/  6   N/A           0
EASTERN LI SOUND 1400            48 48  130/  8/ 10   N/A
ROBBINS REEF     1400            50      60/  9/ 11 1017.1
$$


>>>>>>>>>>>>>>>>>>>>>>>>>>>> KEY <<<<<<<<<<<<<<<<<<<<<<<<<<<
>                                                          <
>     SKY/WX - SKY CONDITION/PRESENT WEATHER               <
>     TMP    - TEMPERATURE IN FAHRENHEIT                   <
>     DP     - DEWPOINT IN FAHRENHEIT                      <
>     RH     - RELATIVE HUMIDITY IN PERCENT                <
>     WIND   - DIRECTION AND SPEED IN MPH                  <
>     PRES   - MEAN SEA LEVEL PRESSURE IN INCHES OF HG     <
>     WCI    - WIND CHILL INDEX                            <
>     VSB    - VISIBILITY IN MILES                         <
>     HX     - HEAT INDEX                                  <
>     TC     - TEMPERATURE IN CELSIUS                      <
>     VRB    - VARIABLE WIND DIRECTION                     <
>                                                          <
>>>>>>>>>>>>>>>>>>>>>>>>>>>> KEY <<<<<<<<<<<<<<<<<<<<<<<<<<<






USA.gov is the U.S. government's official web portal to all federal, state and local government web resources and services.